Powrót do katalogu

DELTA 1 DEB

AktywnySSO
NORAD 13826·DEBRIS·🇺🇸 United States

Wystrzelony Mar 5, 1978 z Vandenberg Space Force Base

Loading…

Następne Przeloty (najbliższe 24 godziny)

TLE

ŚwieżeSource: Space-Track

Epoka: Sep 14, 2026, 11:41 UTC

1 13826U 78026FV  26257.48723766  .00004478  00000-0  50671-3 0  9993
2 13826  98.2387 280.5601 0026037 165.2704 194.9275 14.86740651315552

Śledź DELTA 1 DEB w czasie rzeczywistym z AllMySat

Download on the App Store